Regional Weather Roundup
Issued by NWS

Home | Current Version | Previous Version | Graphics & Text | Print | Product List | Glossary On
Versions: 1 2 3 4 5 6 7 8 9 10 11 12 13 14 15 16 17 18 19 20 21 22 23 24 25 26 27 28 29 30 31 32 33 34 35 36 37 38 39 40 41 42 43 44 45 46 47 48 49 50
000
ASUS45 KCYS 180110
RWRWY

WYOMING REGIONAL WEATHER ROUNDUP
NATIONAL WEATHER SERVICE CHEYENNE WY
700 PM MDT WED SEP 17 2014

NOTE:  "FAIR" INDICATES FEW OR NO CLOUDS BELOW 12,000 FEET
WITH NO SIGNIFICANT WEATHER AND/OR OBSTRUCTIONS TO VISIBILITY.

WYZ001-180200-
YELLOWSTONE NATIONAL PARK

CITY           SKY/WX    TMP DP  RH WIND       PRES   REMARKS
LK YELLOWSTONE   N/A     58  43  57 CALM      30.19F
W YELLOWSTONE  NOT AVBL

$$
WYZ002>013-054>058-071-098>099-180200-
NORTHERN WYOMING

CITY           SKY/WX    TMP DP  RH WIND       PRES   REMARKS
JACKSON        CLEAR     73  41  31 CALM      30.06
CODY             N/A    N/A N/A N/A MISG        N/A
GREYBULL       LGT RAIN  78  44  29 NW18G33   29.94R
WORLAND        MOCLDY    80  39  23 S12       29.92R
SHERIDAN       PTCLDY    66  55  67 CALM      29.91R
BUFFALO        LGT RAIN  67  49  52 SW8       29.99R
GILLETTE       CLEAR     71  48  43 CALM      29.93S
HULETT         FAIR      72  46  40 MISG      29.96
NEWCASTLE      FAIR      73  37  27 SE6       29.94

$$
WYZ014>020-022>026-101>103-180200-
CENTRAL WYOMING

CITY           SKY/WX    TMP DP  RH WIND       PRES   REMARKS
BIG PINEY      MOCLDY    71  42  35 NW3       30.13F
PINEDALE       PTCLDY    68  36  30 S8        30.16S
DUBOIS         FAIR      64  34  32 W8        30.13S
LANDER         MOCLDY    74  41  30 SW10      30.00R
RIVERTON       PTCLDY    76  39  26 N5        30.00R
CASPER         PTCLDY    70  37  29 N6        30.00R
DOUGLAS        PTCLDY    72  41  32 W7        29.98S

$$
WYZ021-027>030-104>119-180200-
SOUTHERN WYOMING

CITY           SKY/WX    TMP DP  RH WIND       PRES   REMARKS
EVANSTON       PTCLDY    71  39  31 SE10      30.13S
KEMMERER       PTCLDY   N/A N/A N/A SE3       30.15S
ROCK SPRINGS   PTCLDY    78  34  20 W8        30.11S
DIXON          FAIR      74  43  32 CALM      30.12S
RAWLINS        CLEAR     72  34  24 W8        30.13S
SARATOGA       FAIR      70  39  32 CALM      30.17S
LARAMIE        PTCLDY    64  43  46 S8        30.17S
CHEYENNE       PTCLDY    73  38  27 CALM      30.09S
TORRINGTON     MOCLDY    77  46  33 SE5       29.93R
PINE BLUFFS    FAIR      70  48  46 CALM      30.03S

$$


USA.gov is the U.S. government's official web portal to all federal, state and local government web resources and services.